Location: Ajisawe
(8.4333°N, 4.3833°E)
Time: 13:10:11
(UTC+00:00)

ARIANE 5 R/B - Pass Details

Date: 07 June 2020
Orbit: 287 x 33991 km, 3.9° (Epoch: 07 July)

Event Time Altitude Azimuth Distance (km) Brightness Sun altitude
Rises 20:40:25 0° 261° (W) 12,729 9.3 -35.8°
Reaches altitude 10° 20:48:49 10° 260° (W) 13,860 9.3 -37.5°
Drops below altitude 10° 04:02:23 10° 267° (W) 27,563 9.8 -19.0°
Maximum altitude 05:49:34 69° 189° (S) 1,818 4.4 5.1°
Sets 05:55:57 0° 101° (ESE) 2,921 6.6 6.6°
